Language: 


Des rapports , des résumés tant et plus, au choix de chacun....


Données statistiques de la station
Quotidien Rapport Octobre 2, 2017 Unités:  Anglais    Métrique   les deux
« Précédent Jour
Suivant Jour »
Quotidien Hebdomadaire Mensuel Annuel Actuel
  Haut: Bas: Moyen:
Température: 68.4 °F 32 °F 58.3 °F
Pt de rosée: 60.8 °F 50 °F 56.7 °F
Humidité: 98 % 0 % 71 %
Vitesse du vent: 25.1 mph 3.8 mph 10.1 mph
Rafales: 27.1 mph - -
Vent:- - WSW
Pression: 30 in 29.9 in -
Précipitation: 0.17 in    
Historical Graphs
 
 
Données statistiques pour Octobre 2, 2017
Heure Température Point de rosée Pression Vent Vitesse du vent Refales Humidité Pluie (taux horaire)
00:01 61 °F 60.8 °F 29.9 in South 7.8 mph 12.8 mph 96 % 0 in
00:06 61 °F 60.8 °F 29.9 in SSW 5.8 mph 12.8 mph 96 % 0 in
00:09 61 °F 60.8 °F 29.9 in SW 5.4 mph 11 mph 96 % 0 in
00:14 61 °F 60.8 °F 29.9 in SSW 7.6 mph 11 mph 96 % 0 in
00:16 61 °F 60.8 °F 29.9 in SSW 6.3 mph 11 mph 96 % 0 in
00:22 61 °F 60.8 °F 29.9 in SSW 7.4 mph 10.7 mph 96 % 0 in
00:27 61 °F 60.8 °F 29.9 in South 6.9 mph 9.8 mph 96 % 0 in
00:37 61 °F 60.8 °F 29.9 in SSW 10.1 mph 15.4 mph 96 % 0 in
00:42 61 °F 60.8 °F 29.9 in SSW 9.4 mph 15.4 mph 96 % 0 in
00:47 61 °F 60.8 °F 29.9 in SW 7.6 mph 14.5 mph 96 % 0 in
00:52 61 °F 60.8 °F 29.9 in WSW 8.1 mph 14.5 mph 96 % 0 in
00:57 61 °F 60.8 °F 29.9 in SSW 5.6 mph 13 mph 96 % 0 in
01:02 61 °F 60.8 °F 29.9 in South 4 mph 13 mph 96 % 0 in
01:07 61 °F 60.8 °F 29.9 in WSW 5.8 mph 10.7 mph 96 % 0 in
01:12 61 °F 60.8 °F 29.9 in SSW 5.8 mph 10.7 mph 96 % 0 in
01:17 61 °F 60.8 °F 29.9 in SSW 4.9 mph 10.7 mph 96 % 0 in
01:22 61 °F 60.8 °F 29.9 in SSW 7.6 mph 12.3 mph 96 % 0 in
01:27 61 °F 60.8 °F 29.9 in SW 7.4 mph 12.3 mph 96 % 0 in
01:32 61 °F 60.8 °F 29.9 in SSW 6.7 mph 10.3 mph 96 % 0 in
01:37 61 °F 60.8 °F 29.9 in South 6 mph 10.3 mph 96 % 0 in
01:42 61 °F 60.8 °F 29.9 in SSW 7.2 mph 8.5 mph 96 % 0 in
01:47 61 °F 60.8 °F 29.9 in SSW 9.6 mph 13.2 mph 96 % 0 in
01:52 61 °F 60.8 °F 29.9 in South 7.6 mph 13.2 mph 96 % 0 in
01:57 61 °F 60.8 °F 29.9 in SSW 7.4 mph 11.2 mph 96 % 0 in
02:07 61 °F 60.8 °F 29.9 in SW 3.8 mph 5.8 mph 96 % 0 in
02:13 61 °F 60.8 °F 29.9 in SW 6.5 mph 8.5 mph 96 % 0 in
02:18 61 °F 60.8 °F 29.9 in South 9.6 mph 9.6 mph 96 % 0 in
02:23 61 °F 60.8 °F 29.9 in SW 7.4 mph 9.6 mph 96 % 0 in
02:28 61 °F 60.8 °F 29.9 in WSW 10.3 mph 10.3 mph 96 % 0 in
02:33 61 °F 60.8 °F 29.9 in SSW 8.1 mph 10.3 mph 96 % 0 in
02:38 61 °F 60.8 °F 29.9 in SW 5.4 mph 10.3 mph 96 % 0 in
02:43 61 °F 60.8 °F 29.9 in SSW 5.4 mph 9.8 mph 96 % 0 in
02:48 61 °F 60.8 °F 29.9 in WSW 8.7 mph 10.1 mph 96 % 0 in
02:53 61 °F 60.8 °F 29.9 in South 6 mph 11 mph 96 % 0 in
02:58 61 °F 60.8 °F 29.9 in SSW 6.9 mph 13.2 mph 96 % 0 in
03:03 32 °F 60.8 °F 29.9 in SSW 6.5 mph 13.2 mph 0 % 0 in
03:08 32 °F 60.8 °F 29.9 in SSW 7.6 mph 10.7 mph 0 % 0 in
03:13 32 °F 60.8 °F 29.9 in SSW 7.8 mph 11 mph 0 % 0 in
03:18 32 °F 60.8 °F 29.9 in SW 11.4 mph 11.4 mph 0 % 0 in
03:23 32 °F 60.8 °F 29.9 in WSW 8.5 mph 11.4 mph 0 % 0 in
03:28 32 °F 60.8 °F 29.9 in SW 11 mph 11.4 mph 0 % 0 in
03:33 32 °F 60.8 °F 29.9 in SW 6.5 mph 13 mph 0 % 0 in
03:38 32 °F 60.8 °F 29.9 in SW 7.4 mph 13 mph 0 % 0 in
03:43 32 °F 60.8 °F 29.9 in WSW 5.6 mph 8.7 mph 0 % 0 in
03:48 32 °F 60.8 °F 29.9 in SSW 6 mph 8.7 mph 0 % 0 in
03:53 32 °F 60.8 °F 29.9 in WSW 8.7 mph 8.7 mph 0 % 0 in
03:58 32 °F 60.8 °F 29.9 in WSW 7.8 mph 8.7 mph 0 % 0 in
04:03 32 °F 60.8 °F 29.9 in WSW 9.2 mph 12.3 mph 0 % 0 in
04:08 32 °F 60.8 °F 29.9 in WSW 10.7 mph 14.8 mph 0 % 0 in
04:13 32 °F 60.8 °F 29.9 in WSW 10.5 mph 15.4 mph 0 % 0 in
04:18 32 °F 60.8 °F 29.9 in WSW 9.6 mph 15.4 mph 0 % 0 in
04:23 32 °F 60.8 °F 29.9 in WSW 9.6 mph 13.9 mph 0 % 0 in
04:28 32 °F 60.8 °F 29.9 in WSW 6 mph 13.2 mph 0 % 0 in
04:33 32 °F 60.8 °F 29.9 in WSW 12.8 mph 13.2 mph 0 % 0 in
04:39 32 °F 60.8 °F 29.9 in WSW 8.7 mph 12.8 mph 0 % 0 in
04:43 32 °F 60.8 °F 29.9 in WSW 10.3 mph 10.7 mph 0 % 0 in
04:48 32 °F 60.8 °F 29.9 in WSW 7.6 mph 12.3 mph 0 % 0 in
04:54 32 °F 60.8 °F 29.9 in West 8.7 mph 12.3 mph 0 % 0 in
04:59 32 °F 60.8 °F 29.9 in WSW 8.9 mph 10.5 mph 0 % 0 in
05:04 32 °F 60.8 °F 29.9 in WSW 8.7 mph 14.1 mph 0 % 0 in
05:09 32 °F 60.8 °F 29.9 in West 13.4 mph 14.1 mph 0 % 0 in
05:14 32 °F 60.8 °F 29.9 in SSW 10.1 mph 16.3 mph 0 % 0 in
05:19 32 °F 60.8 °F 29.9 in West 13 mph 17 mph 0 % 0 in
05:23 32 °F 60.8 °F 29.9 in West 12.5 mph 17 mph 0 % 0 in
05:24 32 °F 60.8 °F 29.9 in WSW 9.8 mph 17 mph 0 % 0 in
05:29 32 °F 60.8 °F 29.9 in WSW 10.7 mph 16.3 mph 0 % 0 in
05:31 32 °F 60.8 °F 29.9 in WSW 7.8 mph 16.3 mph 0 % 0 in
05:36 32 °F 60.8 °F 29.9 in SW 7.6 mph 12.1 mph 0 % 0 in
05:41 32 °F 60.8 °F 29.9 in WSW 5.4 mph 12.1 mph 0 % 0 in
05:46 32 °F 60.8 °F 29.9 in SW 7.2 mph 14.3 mph 0 % 0 in
05:51 32 °F 60.8 °F 29.9 in WSW 5.6 mph 14.3 mph 0 % 0 in
05:56 32 °F 60.8 °F 29.9 in West 7.6 mph 9.8 mph 0 % 0 in
06:01 61.7 °F 59 °F 29.9 in WSW 4.9 mph 8.7 mph 92 % 0 in
06:06 61.7 °F 59 °F 29.9 in WSW 5.4 mph 8.7 mph 92 % 0 in
06:11 61.7 °F 59 °F 29.9 in WSW 8.5 mph 13.2 mph 92 % 0 in
06:16 61.7 °F 59 °F 29.9 in WSW 7.8 mph 13.2 mph 92 % 0 in
06:21 61.7 °F 59 °F 29.9 in WSW 10.3 mph 13.2 mph 92 % 0 in
06:26 61.7 °F 59 °F 29.9 in WSW 7.6 mph 12.8 mph 92 % 0 in
06:31 61.7 °F 59 °F 29.9 in WNW 10.3 mph 12.8 mph 92 % 0 in
06:36 61.7 °F 59 °F 29.9 in WSW 11 mph 11 mph 92 % 0 in
06:41 61.7 °F 59 °F 29.9 in WSW 8.7 mph 11 mph 92 % 0 in
06:46 61.7 °F 59 °F 29.9 in WSW 7.6 mph 10.5 mph 92 % 0 in
06:51 61.7 °F 59 °F 29.9 in WSW 8.9 mph 12.8 mph 92 % 0 in
06:56 61.7 °F 59 °F 29.9 in WSW 6.7 mph 12.8 mph 92 % 0 in
07:01 61.7 °F 59 °F 29.9 in WSW 6.3 mph 9.6 mph 92 % 0 in
07:06 61.7 °F 59 °F 29.9 in WSW 7.8 mph 10.1 mph 92 % 0 in
07:11 61.7 °F 59 °F 29.9 in SW 10.5 mph 10.5 mph 92 % 0 in
07:16 61.7 °F 59 °F 29.9 in WSW 10.5 mph 12.5 mph 92 % 0 in
07:21 61.3 °F 59 °F 29.9 in WSW 8.7 mph 12.5 mph 91 % 0 in
07:26 61.3 °F 59 °F 29.9 in WSW 7.6 mph 11 mph 91 % 0 in
07:32 61.3 °F 59 °F 29.9 in SW 8.7 mph 8.7 mph 91 % 0 in
07:37 61.3 °F 59 °F 29.9 in WSW 7.6 mph 12.1 mph 91 % 0 in
07:42 61.3 °F 59 °F 29.9 in WSW 8.1 mph 12.1 mph 91 % 0 in
07:47 61.3 °F 59 °F 29.9 in WSW 10.1 mph 10.1 mph 91 % 0 in
07:52 61.3 °F 59 °F 29.9 in West 7.6 mph 15.4 mph 91 % 0 in
07:57 61.3 °F 59 °F 29.9 in SSW 6.5 mph 15.4 mph 91 % 0 in
08:02 61.3 °F 59 °F 29.9 in WSW 7.2 mph 13 mph 91 % 0 in
08:07 61.2 °F 59 °F 29.9 in SW 5.8 mph 13 mph 91 % 0 in
08:12 61.2 °F 59 °F 29.9 in SW 6.5 mph 8.5 mph 91 % 0 in
08:17 61.2 °F 59 °F 29.9 in SW 8.9 mph 11 mph 91 % 0 in
08:22 61.2 °F 59 °F 29.9 in West 8.5 mph 11 mph 91 % 0 in
08:27 61.2 °F 59 °F 29.9 in WSW 5.4 mph 10.5 mph 91 % 0 in
08:32 61.2 °F 59 °F 29.9 in West 6.3 mph 11 mph 91 % 0 in
08:37 61.2 °F 59 °F 29.9 in West 8.1 mph 11.4 mph 91 % 0 in
08:42 61.3 °F 59 °F 29.9 in West 6 mph 11.4 mph 91 % 0 in
08:47 61.3 °F 59 °F 29.9 in WSW 6.3 mph 10.5 mph 91 % 0 in
08:52 61.3 °F 59 °F 29.9 in WSW 7.8 mph 9.2 mph 91 % 0 in
08:57 61.3 °F 59 °F 29.9 in WSW 7.4 mph 9.2 mph 91 % 0 in
09:02 61.5 °F 59 °F 29.9 in SW 11.4 mph 11.4 mph 90 % 0 in
09:07 61.7 °F 59 °F 29.9 in WSW 8.7 mph 11.9 mph 90 % 0 in
09:12 61.7 °F 59 °F 29.9 in WSW 8.5 mph 11.9 mph 90 % 0 in
09:17 61.7 °F 59 °F 29.9 in WSW 10.7 mph 14.5 mph 90 % 0 in
09:22 61.7 °F 59 °F 29.9 in WSW 5.8 mph 14.5 mph 90 % 0 in
09:27 61.7 °F 59 °F 29.9 in WSW 10.3 mph 13.4 mph 90 % 0 in
09:32 61.9 °F 59 °F 29.9 in SW 8.5 mph 13.4 mph 89 % 0 in
09:38 61.9 °F 59 °F 29.9 in WSW 7.8 mph 11 mph 89 % 0 in
09:43 61.9 °F 59 °F 29.9 in West 9.8 mph 10.5 mph 89 % 0 in
09:48 61.9 °F 59 °F 29.9 in WSW 9.8 mph 12.8 mph 89 % 0 in
09:53 61.9 °F 59 °F 29.9 in WSW 11 mph 12.8 mph 89 % 0 in
09:58 62.1 °F 59 °F 29.9 in SSW 10.3 mph 13 mph 87 % 0 in
10:03 62.1 °F 59 °F 29.9 in WSW 10.1 mph 14.8 mph 87 % 0 in
10:08 62.1 °F 57.2 °F 29.9 in West 8.1 mph 14.8 mph 86 % 0 in
10:13 62.1 °F 57.2 °F 29.9 in West 7.6 mph 14.5 mph 86 % 0 in
10:18 62.1 °F 57.2 °F 29.9 in WSW 8.1 mph 14.5 mph 86 % 0 in
10:23 62.1 °F 57.2 °F 29.9 in WSW 12.5 mph 14.3 mph 86 % 0 in
10:28 62.1 °F 57.2 °F 29.9 in WSW 13.9 mph 14.3 mph 86 % 0 in
10:33 62.1 °F 57.2 °F 29.9 in WSW 10.1 mph 13.9 mph 86 % 0 in
10:38 62.1 °F 57.2 °F 29.9 in WSW 13.9 mph 13.9 mph 86 % 0 in
10:43 61.9 °F 57.2 °F 29.9 in West 7.8 mph 17 mph 84 % 0 in
10:48 61.9 °F 57.2 °F 29.9 in WSW 7.8 mph 17 mph 84 % 0 in
10:53 61.9 °F 57.2 °F 29.9 in WSW 16.3 mph 16.3 mph 84 % 0 in
10:58 64 °F 59 °F 29.9 in WSW 12.3 mph 16.3 mph 82 % 0 in
11:03 64 °F 59 °F 29.9 in West 14.5 mph 14.5 mph 82 % 0 in
11:05 64 °F 59 °F 29.9 in West 10.7 mph 14.5 mph 82 % 0 in
11:10 64 °F 59 °F 29.9 in West 13.9 mph 14.5 mph 82 % 0 in
11:15 64 °F 59 °F 29.9 in WNW 17.2 mph 19.2 mph 82 % 0 in
11:20 64 °F 59 °F 29.9 in WNW 8.5 mph 19.2 mph 82 % 0 in
11:25 64 °F 59 °F 29.9 in West 10.1 mph 17.2 mph 82 % 0 in
11:30 64 °F 59 °F 29.9 in West 9.6 mph 17.2 mph 82 % 0 in
11:35 64 °F 59 °F 29.9 in WSW 10.1 mph 13.9 mph 82 % 0 in
11:40 64 °F 59 °F 29.9 in West 16.3 mph 17.2 mph 82 % 0 in
11:45 64 °F 59 °F 29.9 in WNW 7.6 mph 17.2 mph 82 % 0 in
11:50 64 °F 59 °F 29.9 in West 14.5 mph 19.9 mph 82 % 0 in
11:55 64.8 °F 55.4 °F 29.9 in WSW 13.2 mph 19.9 mph 71 % 0 in
12:00 64.8 °F 55.4 °F 29.9 in WSW 13.2 mph 16.8 mph 71 % 0 in
12:05 66.6 °F 57.2 °F 29.9 in West 13.2 mph 18.8 mph 72 % 0 in
12:10 66.6 °F 57.2 °F 29.9 in West 13.2 mph 18.8 mph 72 % 0 in
12:15 66.6 °F 57.2 °F 29.9 in WSW 13.6 mph 17.9 mph 72 % 0 in
12:20 66.6 °F 57.2 °F 29.9 in West 11 mph 19.7 mph 72 % 0 in
12:25 66.6 °F 57.2 °F 29.9 in WSW 14.3 mph 20.1 mph 72 % 0 in
12:30 66.6 °F 57.2 °F 29.9 in West 10.5 mph 20.1 mph 72 % 0 in
12:35 66.6 °F 57.2 °F 29.9 in West 15.4 mph 24.4 mph 72 % 0 in
12:40 66.6 °F 57.2 °F 29.9 in West 19.7 mph 24.4 mph 72 % 0 in
12:45 67.5 °F 55.4 °F 29.9 in WSW 10.7 mph 19.9 mph 65 % 0 in
12:50 67.5 °F 55.4 °F 29.9 in WSW 13.2 mph 19.7 mph 65 % 0 in
12:55 67.5 °F 55.4 °F 29.9 in WSW 19.7 mph 23.5 mph 65 % 0 in
13:01 67.5 °F 55.4 °F 29.9 in WNW 17 mph 23.5 mph 65 % 0 in
13:06 68.4 °F 55.4 °F 29.9 in WSW 17.2 mph 24.4 mph 60 % 0 in
13:11 68.4 °F 53.6 °F 29.9 in West 25.1 mph 25.1 mph 57 % 0 in
13:16 68.4 °F 53.6 °F 29.9 in West 19.9 mph 25.7 mph 57 % 0 in
13:21 66.9 °F 50 °F 29.9 in West 18.8 mph 27.1 mph 55 % 0 in
13:26 66.9 °F 50 °F 29.9 in West 13.2 mph 27.1 mph 55 % 0 in
13:31 66.9 °F 50 °F 29.9 in WSW 12.8 mph 24.4 mph 55 % 0 in
13:36 66.9 °F 50 °F 29.9 in West 17.9 mph 22.4 mph 55 % 0 in
13:41 66.9 °F 50 °F 29.9 in West 19.9 mph 19.9 mph 55 % 0 in
13:46 66.9 °F 50 °F 29.9 in WNW 17.2 mph 19.9 mph 55 % 0 in
13:51 66.9 °F 50 °F 29.9 in West 15.7 mph 20.8 mph 55 % 0 in
13:56 66.9 °F 50 °F 29.9 in West 13.9 mph 20.8 mph 55 % 0 in
14:01 66.7 °F 50 °F 29.9 in West 17.7 mph 25.5 mph 55 % 0 in
14:06 66.7 °F 50 °F 29.9 in West 13.2 mph 25.5 mph 55 % 0 in
14:11 66.7 °F 50 °F 29.9 in West 15.9 mph 24.2 mph 55 % 0 in
14:16 66.7 °F 50 °F 29.9 in WNW 16.6 mph 23.7 mph 55 % 0 in
14:21 66.7 °F 50 °F 29.9 in West 10.7 mph 17.9 mph 55 % 0 in
14:26 66.7 °F 50 °F 29.9 in West 13.9 mph 22.1 mph 55 % 0 in
14:31 66.7 °F 50 °F 29.9 in West 13 mph 22.1 mph 55 % 0 in
14:37 66.7 °F 50 °F 29.9 in SW 10.1 mph 19.9 mph 55 % 0 in
14:42 66.7 °F 50 °F 29.9 in SW 12.3 mph 19.9 mph 55 % 0 in
14:47 66.7 °F 50 °F 29.9 in West 10.1 mph 19.2 mph 55 % 0 in
14:52 66.7 °F 50 °F 29.9 in West 15.7 mph 21.5 mph 55 % 0 in
14:57 66.7 °F 50 °F 29.9 in West 19.5 mph 21.5 mph 55 % 0 in
15:02 66.7 °F 50 °F 29.9 in WSW 19.9 mph 23.3 mph 55 % 0 in
15:07 66.7 °F 50 °F 29.9 in WSW 15.2 mph 23.3 mph 55 % 0 in
15:12 66.7 °F 50 °F 29.9 in West 15.2 mph 19.9 mph 55 % 0 in
15:17 66.7 °F 50 °F 29.9 in WSW 8.7 mph 19.9 mph 55 % 0 in
15:22 66.7 °F 50 °F 29.9 in West 13.4 mph 17.4 mph 55 % 0 in
15:27 66.7 °F 50 °F 29.9 in West 12.3 mph 16.8 mph 55 % 0 in
15:32 66.7 °F 50 °F 29.9 in West 10.1 mph 17.9 mph 55 % 0 in
15:37 66.7 °F 50 °F 29.9 in WSW 14.8 mph 18.6 mph 55 % 0 in
15:42 66.7 °F 50 °F 29.9 in West 13.4 mph 22.4 mph 55 % 0 in
15:47 66.7 °F 50 °F 29.9 in WSW 15.4 mph 22.4 mph 55 % 0 in
15:52 66.7 °F 50 °F 29.9 in WSW 18.8 mph 25.9 mph 55 % 0 in
15:57 66.7 °F 50 °F 29.9 in WSW 14.3 mph 25.9 mph 55 % 0 in
16:02 68.2 °F 53.6 °F 29.9 in West 17.4 mph 22.8 mph 59 % 0 in
16:07 68.4 °F 53.6 °F 29.9 in West 17.2 mph 25.3 mph 58 % 0 in
16:12 67.3 °F 51.8 °F 29.9 in WSW 22.1 mph 25.3 mph 58 % 0 in
16:17 67.3 °F 51.8 °F 29.9 in WSW 17.4 mph 25.7 mph 58 % 0 in
16:22 67.3 °F 51.8 °F 29.9 in WSW 24.2 mph 25.7 mph 58 % 0 in
16:27 67.3 °F 51.8 °F 29.9 in West 17 mph 24.2 mph 58 % 0 in
16:32 67.3 °F 51.8 °F 29.9 in NW 10.1 mph 24.2 mph 58 % 0 in
16:37 67.3 °F 51.8 °F 29.9 in West 10.5 mph 20.8 mph 58 % 0 in
16:42 67.3 °F 51.8 °F 29.9 in West 23.9 mph 24.2 mph 58 % 0 in
16:47 67.3 °F 51.8 °F 29.9 in WSW 23 mph 26.4 mph 58 % 0 in
16:52 67.3 °F 51.8 °F 29.9 in WSW 13.6 mph 26.4 mph 58 % 0 in
16:57 67.3 °F 51.8 °F 29.9 in West 20.8 mph 24.6 mph 58 % 0 in
17:02 67.3 °F 51.8 °F 29.9 in West 12.8 mph 23.7 mph 58 % 0 in
17:07 64 °F 51.8 °F 29.9 in West 17.2 mph 17.9 mph 66 % 0 in
17:12 64 °F 51.8 °F 29.9 in West 9.8 mph 17.2 mph 66 % 0 in
17:17 64 °F 51.8 °F 29.9 in West 10.3 mph 17.4 mph 66 % 0 in
17:22 64 °F 51.8 °F 29.9 in West 11 mph 17.4 mph 66 % 0 in
17:27 64 °F 51.8 °F 29.9 in West 13.9 mph 17.2 mph 66 % 0 in
17:33 64 °F 51.8 °F 29.9 in WSW 10.7 mph 21.5 mph 66 % 0 in
17:38 64 °F 51.8 °F 29.9 in West 7.4 mph 21.5 mph 66 % 0 in
17:43 64 °F 51.8 °F 29.9 in SW 14.3 mph 15.9 mph 66 % 0 in
17:48 64 °F 51.8 °F 29.9 in West 15.4 mph 16.3 mph 66 % 0 in
17:53 64 °F 51.8 °F 29.9 in West 7.6 mph 17 mph 66 % 0 in
17:58 64 °F 51.8 °F 29.9 in WSW 15.2 mph 19.2 mph 66 % 0 in
18:03 64 °F 51.8 °F 29.9 in WNW 10.3 mph 19.2 mph 66 % 0 in
18:08 64 °F 51.8 °F 29.9 in West 10.1 mph 17 mph 66 % 0 in
18:13 64 °F 51.8 °F 29.9 in WSW 11 mph 16.8 mph 66 % 0 in
18:18 64 °F 51.8 °F 29.9 in WSW 11.2 mph 16.8 mph 66 % 0 in
18:23 64 °F 51.8 °F 29.9 in West 12.3 mph 16.3 mph 66 % 0 in
18:28 61.7 °F 53.6 °F 29.9 in WSW 8.1 mph 15.4 mph 74 % 0 in
18:33 61.7 °F 53.6 °F 29.9 in WSW 14.5 mph 14.5 mph 74 % 0 in
18:38 61.7 °F 53.6 °F 29.9 in WSW 10.1 mph 14.5 mph 74 % 0 in
18:43 61.7 °F 53.6 °F 29.9 in West 10.1 mph 15.7 mph 74 % 0 in
18:49 61.7 °F 53.6 °F 30 in West 9.6 mph 17.4 mph 74 % 0 in
18:54 61.7 °F 53.6 °F 30 in West 6.7 mph 17.4 mph 74 % 0.01 in
18:59 61.7 °F 53.6 °F 30 in West 8.5 mph 13 mph 74 % 0.01 in
19:03 61.7 °F 53.6 °F 30 in WSW 10.3 mph 13 mph 74 % 0.01 in
19:08 61.7 °F 53.6 °F 30 in WSW 6.3 mph 12.3 mph 74 % 0.01 in
19:13 61.7 °F 53.6 °F 30 in WSW 8.1 mph 12.3 mph 74 % 0.01 in
19:18 59 °F 55.4 °F 30 in WSW 9.8 mph 12.3 mph 86 % 0.01 in
19:23 59 °F 55.4 °F 30 in West 10.1 mph 12.3 mph 86 % 0.01 in
19:28 59 °F 55.4 °F 30 in WSW 8.1 mph 14.5 mph 86 % 0.01 in
19:33 59 °F 55.4 °F 30 in SW 10.1 mph 14.5 mph 86 % 0.01 in
19:38 59.2 °F 55.4 °F 30 in West 7.6 mph 10.1 mph 86 % 0.01 in
19:43 59.2 °F 55.4 °F 30 in West 13 mph 13 mph 86 % 0.01 in
19:48 59.2 °F 55.4 °F 30 in West 9.8 mph 13 mph 86 % 0.01 in
19:53 59.2 °F 55.4 °F 30 in WSW 6.3 mph 13 mph 86 % 0 in
19:58 59.2 °F 55.4 °F 30 in WSW 7.2 mph 12.5 mph 86 % 0 in
20:03 59.2 °F 55.4 °F 30 in West 8.1 mph 10.5 mph 86 % 0 in
20:08 59.2 °F 55.4 °F 30 in WSW 9.6 mph 10.7 mph 86 % 0 in
20:14 59.2 °F 55.4 °F 30 in West 7.4 mph 10.7 mph 86 % 0 in
20:19 59 °F 55.4 °F 30 in WSW 5.6 mph 9.6 mph 86 % 0 in
20:24 59 °F 55.4 °F 30 in West 7.2 mph 8.1 mph 87 % 0 in
20:29 59 °F 55.4 °F 30 in WNW 7.6 mph 8.1 mph 87 % 0 in
20:34 58.8 °F 55.4 °F 30 in WSW 6.9 mph 7.8 mph 87 % 0 in
20:35 58.8 °F 55.4 °F 30 in WSW 5.8 mph 7.8 mph 87 % 0 in
20:41 58.8 °F 55.4 °F 30 in WSW 9.6 mph 9.8 mph 87 % 0 in
20:46 58.8 °F 55.4 °F 30 in WSW 6.3 mph 9.8 mph 87 % 0 in
20:51 58.8 °F 55.4 °F 30 in WSW 5.8 mph 9.6 mph 87 % 0 in
20:56 58.8 °F 55.4 °F 30 in WSW 5.6 mph 8.1 mph 87 % 0.01 in
21:01 58.8 °F 55.4 °F 30 in WSW 5.6 mph 8.1 mph 87 % 0.01 in
21:06 57.9 °F 55.4 °F 30 in WSW 5.6 mph 8.1 mph 92 % 0.01 in
21:11 57.9 °F 55.4 °F 30 in WSW 5.6 mph 8.1 mph 92 % 0.02 in
21:16 57.6 °F 55.4 °F 30 in WSW 5.6 mph 8.1 mph 93 % 0.02 in
21:21 57.6 °F 55.4 °F 30 in WSW 5.6 mph 8.1 mph 94 % 0.03 in
21:26 57.4 °F 55.4 °F 30 in WSW 5.6 mph 8.1 mph 95 % 0.03 in
21:31 57.4 °F 55.4 °F 30 in WSW 7.6 mph 7.6 mph 95 % 0.03 in
21:36 57.2 °F 57.2 °F 30 in WSW 7.6 mph 7.6 mph 96 % 0.05 in
21:41 57.2 °F 57.2 °F 30 in WSW 7.6 mph 7.6 mph 96 % 0.05 in
21:46 56.8 °F 55.4 °F 30 in WSW 7.6 mph 7.6 mph 95 % 0.05 in
21:51 56.8 °F 55.4 °F 30 in WSW 7.6 mph 7.6 mph 95 % 0.05 in
21:56 56.7 °F 55.4 °F 30 in WSW 7.6 mph 7.6 mph 96 % 0.05 in
22:01 56.7 °F 55.4 °F 30 in WSW 7.6 mph 7.6 mph 96 % 0.05 in
22:06 56.7 °F 55.4 °F 30 in WSW 7.6 mph 7.6 mph 97 % 0.04 in
22:11 56.7 °F 55.4 °F 30 in WSW 7.6 mph 7.6 mph 97 % 0.04 in
22:16 56.7 °F 57.2 °F 30 in WSW 7.6 mph 7.6 mph 98 % 0.05 in
22:21 56.7 °F 57.2 °F 30 in WSW 7.6 mph 7.6 mph 98 % 0.05 in
22:26 56.7 °F 57.2 °F 30 in WSW 7.6 mph 7.6 mph 98 % 0.07 in
22:31 56.7 °F 57.2 °F 30 in WSW 7.6 mph 7.6 mph 98 % 0.09 in
22:36 56.7 °F 57.2 °F 30 in WSW 7.8 mph 7.8 mph 98 % 0.07 in
22:41 56.7 °F 57.2 °F 30 in WSW 7.8 mph 7.8 mph 98 % 0.09 in
22:46 56.7 °F 57.2 °F 30 in WSW 7.8 mph 7.8 mph 98 % 0.09 in
22:51 56.5 °F 57.2 °F 30 in WSW 7.8 mph 7.8 mph 98 % 0.09 in
22:56 56.3 °F 57.2 °F 30 in WSW 7.8 mph 7.8 mph 98 % 0.07 in
23:01 56.3 °F 57.2 °F 30 in WSW 7.8 mph 7.8 mph 98 % 0.09 in
23:06 56.1 °F 55.4 °F 30 in WSW 7.8 mph 7.8 mph 98 % 0.09 in
23:11 56.1 °F 55.4 °F 30 in WSW 7.8 mph 7.8 mph 98 % 0.07 in
23:16 55.9 °F 55.4 °F 30 in WSW 7.8 mph 7.8 mph 98 % 0.07 in
23:21 55.6 °F 55.4 °F 30 in WSW 7.8 mph 7.8 mph 98 % 0.07 in
23:26 55.6 °F 55.4 °F 30 in WSW 7.8 mph 7.8 mph 98 % 0.05 in
23:32 55.6 °F 55.4 °F 30 in WSW 7.8 mph 7.8 mph 98 % 0.04 in
23:37 55.6 °F 55.4 °F 30 in WSW 7.8 mph 7.8 mph 98 % 0.04 in
23:42 55.2 °F 55.4 °F 30 in WSW 7.8 mph 7.8 mph 98 % 0.02 in
23:47 55.2 °F 55.4 °F 30 in WSW 7.8 mph 7.8 mph 98 % 0.02 in
23:52 55.2 °F 55.4 °F 30 in WSW 7.8 mph 7.8 mph 98 % 0.02 in
23:57 54.9 °F 55.4 °F 30 in WSW 7.8 mph 7.8 mph 98 % 0.02 in
Le Gheer Warneton
Courtoisie de Weather Underground - 2.5 mb

Mise a jour : 18/12/2017 21:24:12
Généré par Cumulus 1.9.4 (1099)